Retour au catalogue

STARLINK-35495

ActifCommunicationsVLEO
NORAD 66243·PAYLOAD·🇺🇸 United States

Lancé Oct 29, 2025 depuis Cape Canaveral Space Force Station

Loading…

Prochains Passages (prochaines 24 heures)

TLE

FraisSource: CelesTrak SupGP

Époque: Sep 14, 2026, 21:34 UTC

1 66243C 25245K   26257.89909722 -.00045501  00000+0 -13445-2 0  2579
2 66243  53.1573 124.0374 0001194  88.4260 121.9903 15.34410801    14

Suivez STARLINK-35495 en temps réel avec AllMySat

Download on the App Store